EDT,Max TemperatureF,Mean TemperatureF,Min TemperatureF,Max Dew PointF,MeanDew PointF,Min DewpointF,Max Humidity, Mean Humidity, Min Humidity, Max Sea Level PressureIn, Mean Sea Level PressureIn, Min Sea Level PressureIn, Max VisibilityMiles, Mean VisibilityMiles, Min VisibilityMiles, Max Wind SpeedMPH, Mean Wind SpeedMPH, Max Gust SpeedMPH,PrecipitationIn, CloudCover, Events, WindDirDegrees
2012-9-1,86,79,71,72,70,64,93,79,65,30.16,30.11,30.04,10,10,6,14,3,22,0.04,5,Rain-Thunderstorm,193
2012-9-2,82,76,70,72,70,69,100,87,74,30.10,30.05,29.95,10,6,1,9,2,12,0.27,5,Rain,96
2012-9-3,84,78,72,72,69,68,87,73,59,30.03,29.97,29.91,10,9,2,12,4,16,0.07,3,Rain,145
2012-9-4,83,78,72,72,69,67,93,76,58,29.97,29.90,29.84,10,10,9,10,4,16,0.09,6,Rain,188
2012-9-5,88,79,70,72,70,64,97,74,51,29.93,29.88,29.83,10,7,1,7,1,10,0.06,6,Rain,7
2012-9-6,89,79,68,69,65,61,90,65,40,29.94,29.90,29.87,10,10,7,9,3,14,T,1,,217
2012-9-7,88,78,67,70,65,61,97,70,42,30.02,29.93,29.78,10,8,4,13,3,16,0.00,2,,198
2012-9-8,77,67,57,66,62,55,93,79,64,29.92,29.76,29.64,10,8,0,21,4,37,0.55,6,Fog-Rain,216
2012-9-9,72,64,55,56,52,47,100,72,44,30.06,29.96,29.90,10,10,10,12,4,17,0.01,5,,249
2012-9-10,71,60,48,52,48,43,100,69,37,30.24,30.17,30.07,10,8,0,14,2,20,0.00,2,Fog,5
2012-9-11,77,62,46,52,47,43,93,63,33,30.34,30.28,30.24,10,10,10,7,0,10,0.01,0,,335
2012-9-12,82,65,48,56,52,48,100,68,35,30.36,30.31,30.27,10,10,10,8,1,13,0.00,0,,240
2012-9-13,84,69,54,59,56,53,93,66,39,30.38,30.30,30.24,10,10,7,7,2,9,0.00,0,,324
2012-9-14,83,71,58,63,56,50,93,63,33,30.28,30.23,30.14,10,10,9,14,5,26,0.02,4,Rain,310
2012-9-15,73,62,51,55,52,46,100,72,44,30.34,30.27,30.19,10,8,0,12,2,15,0.00,4,Fog,337
2012-9-16,74,61,47,53,48,43,100,69,38,30.21,30.16,30.09,10,10,4,7,1,10,0.00,0,,5
2012-9-17,79,62,45,64,51,44,93,62,31,30.10,30.01,29.89,10,10,8,12,1,17,0.11,2,Rain,200
2012-9-18,69,62,54,64,61,54,100,92,84,29.93,29.72,29.59,10,8,2,13,4,22,0.73,7,Rain,200
2012-9-19,65,55,45,54,42,34,93,64,34,30.18,30.12,29.96,10,10,8,9,2,14,0.00,1,,342
2012-9-20,75,59,43,52,46,40,92,64,35,30.16,30.07,29.99,10,10,10,13,4,18,0.00,1,,198
2012-9-21,77,70,62,56,54,51,68,56,43,30.03,29.97,29.83,10,10,10,14,6,21,0.00,4,,195
2012-9-22,75,63,50,57,51,38,78,58,37,30.10,29.88,29.78,10,10,10,17,7,32,0.01,5,Rain,229
2012-9-23,62,54,45,44,41,36,89,64,39,30.22,30.18,30.11,10,10,10,12,3,17,0.00,6,,205
2012-9-24,63,53,42,44,38,31,96,63,30,30.30,30.21,30.14,10,10,10,12,4,18,0.00,1,,211
2012-9-25,70,55,40,53,44,38,100,69,37,30.17,30.12,30.07,10,10,10,15,4,25,T,3,,194
2012-9-26,74,67,59,59,58,54,90,74,57,30.14,30.10,30.04,10,10,6,15,5,25,0.20,6,Rain,205
2012-9-27,71,66,61,66,63,60,100,89,78,30.21,30.14,30.09,10,6,1,9,1,13,1.01,7,Fog-Rain-Thunderstorm,185
2012-9-28,64,57,49,63,58,49,100,80,60,30.15,30.11,30.07,10,6,0,7,2,10,0.00,5,Fog-Rain,302
2012-9-29,64,55,46,50,48,42,100,74,48,30.11,30.07,29.96,10,4,0,9,1,13,0.01,4,Fog,195
2012-9-30,66,56,45,52,48,44,100,78,56,29.96,29.91,29.85,10,7,0,18,2,24,0.11,4,Fog-Rain-Thunderstorm,90